Time,TemperatureF,DewpointF,PressureIn,WindDirection,WindDirectionDegrees,WindSpeedMPH,WindSpeedGustMPH,Humidity,HourlyPrecipIn,Conditions,Clouds,dailyrainin,SoftwareType,DateUTC
2013-04-20 00:02:00,62.0,-99.9,-100.00,North,-999,-999.0,-999.0,-999,-99.99,,,-99.99,,2013-04-20 07:02:00,
2013-04-20 00:11:00,62.0,-99.9,-100.00,North,-999,-999.0,-999.0,-999,-99.99,,,-99.99,,2013-04-20 07:11:00,
2013-04-20 00:22:00,62.0,-99.9,-100.00,North,-999,-999.0,-999.0,-999,-99.99,,,-99.99,,2013-04-20 07:22:00,
2013-04-20 00:31:00,63.0,26.0,-100.00,North,-999,-999.0,-999.0,24,-99.99,,,-99.99,,2013-04-20 07:31:00,
2013-04-20 00:42:00,63.0,26.0,-100.00,North,-999,-999.0,-999.0,24,-99.99,,,-99.99,,2013-04-20 07:42:00,
2013-04-20 00:52:00,63.0,26.0,-100.00,North,-999,-999.0,-999.0,24,-99.99,,,-99.99,,2013-04-20 07:52:00,
2013-04-20 01:01:00,62.0,27.0,-100.00,North,-999,-999.0,-999.0,26,-99.99,,,-99.99,,2013-04-20 08:01:00,
2013-04-20 01:11:00,62.0,27.0,-100.00,North,-999,-999.0,-999.0,26,-99.99,,,-99.99,,2013-04-20 08:11:00,
2013-04-20 01:21:00,62.0,27.0,-100.00,North,-999,-999.0,-999.0,26,-99.99,,,-99.99,,2013-04-20 08:21:00,
2013-04-20 01:31:00,64.0,30.0,-100.00,North,-999,-999.0,-999.0,28,-99.99,,,-99.99,,2013-04-20 08:31:00,
2013-04-20 01:42:00,64.0,30.0,-100.00,North,-999,-999.0,-999.0,28,-99.99,,,-99.99,,2013-04-20 08:42:00,
2013-04-20 01:52:00,64.0,30.0,-100.00,North,-999,-999.0,-999.0,28,-99.99,,,-99.99,,2013-04-20 08:52:00,
2013-04-20 02:01:00,60.0,29.0,-100.00,North,-999,-999.0,-999.0,31,-99.99,,,-99.99,,2013-04-20 09:01:00,
2013-04-20 02:12:00,60.0,29.0,-100.00,North,-999,-999.0,-999.0,31,-99.99,,,-99.99,,2013-04-20 09:12:00,
2013-04-20 02:21:00,59.0,31.0,-100.00,North,-999,-999.0,-999.0,34,-99.99,,,-99.99,,2013-04-20 09:21:00,
2013-04-20 02:32:00,59.0,31.0,-100.00,North,-999,-999.0,-999.0,34,-99.99,,,-99.99,,2013-04-20 09:32:00,
2013-04-20 02:43:00,59.0,31.0,-100.00,North,-999,-999.0,-999.0,34,-99.99,,,-99.99,,2013-04-20 09:43:00,
2013-04-20 02:53:00,59.0,31.0,-100.00,North,-999,-999.0,-999.0,34,-99.99,,,-99.99,,2013-04-20 09:53:00,
2013-04-20 03:02:00,63.0,33.0,-100.00,North,-999,-999.0,-999.0,32,-99.99,,,-99.99,,2013-04-20 10:02:00,
2013-04-20 03:12:00,63.0,33.0,-100.00,North,-999,-999.0,-999.0,32,-99.99,,,-99.99,,2013-04-20 10:12:00,
2013-04-20 03:23:00,63.0,33.0,-100.00,North,-999,-999.0,-999.0,32,-99.99,,,-99.99,,2013-04-20 10:23:00,
2013-04-20 03:33:00,63.0,33.0,-100.00,North,-999,-999.0,-999.0,32,-99.99,,,-99.99,,2013-04-20 10:33:00,
2013-04-20 03:42:00,63.0,33.0,-100.00,North,-999,-999.0,-999.0,32,-99.99,,,-99.99,,2013-04-20 10:42:00,
2013-04-20 03:53:00,63.0,33.0,-100.00,North,-999,-999.0,-999.0,32,-99.99,,,-99.99,,2013-04-20 10:53:00,
2013-04-20 04:02:00,63.0,32.0,-100.00,North,-999,-999.0,-999.0,31,-99.99,,,-99.99,,2013-04-20 11:02:00,
2013-04-20 04:12:00,63.0,32.0,-100.00,North,-999,-999.0,-999.0,31,-99.99,,,-99.99,,2013-04-20 11:12:00,
2013-04-20 04:23:00,63.0,32.0,-100.00,North,-999,-999.0,-999.0,31,-99.99,,,-99.99,,2013-04-20 11:23:00,
2013-04-20 04:31:00,56.0,31.0,-100.00,North,-999,-999.0,-999.0,38,-99.99,,,-99.99,,2013-04-20 11:31:00,
2013-04-20 04:42:00,56.0,31.0,-100.00,North,-999,-999.0,-999.0,38,-99.99,,,-99.99,,2013-04-20 11:42:00,
2013-04-20 04:52:00,56.0,31.0,-100.00,North,-999,-999.0,-999.0,38,-99.99,,,-99.99,,2013-04-20 11:52:00,
2013-04-20 05:02:00,53.0,31.0,-100.00,North,-999,-999.0,-999.0,42,-99.99,,,-99.99,,2013-04-20 12:02:00,
2013-04-20 05:11:00,53.0,31.0,-100.00,North,-999,-999.0,-999.0,42,-99.99,,,-99.99,,2013-04-20 12:11:00,
2013-04-20 05:22:00,53.0,31.0,-100.00,North,-999,-999.0,-999.0,42,-99.99,,,-99.99,,2013-04-20 12:22:00,
2013-04-20 05:32:00,48.0,30.0,-100.00,North,-999,-999.0,-999.0,49,-99.99,,,-99.99,,2013-04-20 12:32:00,
2013-04-20 05:42:00,48.0,30.0,-100.00,North,-999,-999.0,-999.0,49,-99.99,,,-99.99,,2013-04-20 12:42:00,
2013-04-20 05:52:00,48.0,30.0,-100.00,North,-999,-999.0,-999.0,49,-99.99,,,-99.99,,2013-04-20 12:52:00,
2013-04-20 06:02:00,48.0,-99.9,-100.00,North,-999,-999.0,-999.0,-999,-99.99,,,-99.99,,2013-04-20 13:02:00,
2013-04-20 06:12:00,48.0,-99.9,-100.00,North,-999,-999.0,-999.0,-999,-99.99,,,-99.99,,2013-04-20 13:12:00,
2013-04-20 06:22:00,48.0,-99.9,-100.00,North,-999,-999.0,-999.0,-999,-99.99,,,-99.99,,2013-04-20 13:22:00,
2013-04-20 06:31:00,53.0,29.0,-100.00,North,-999,-999.0,-999.0,40,-99.99,,,-99.99,,2013-04-20 13:31:00,
2013-04-20 06:42:00,53.0,29.0,-100.00,North,-999,-999.0,-999.0,40,-99.99,,,-99.99,,2013-04-20 13:42:00,
2013-04-20 06:52:00,53.0,29.0,-100.00,North,-999,-999.0,-999.0,40,-99.99,,,-99.99,,2013-04-20 13:52:00,
2013-04-20 07:02:00,49.0,30.0,-100.00,North,-999,-999.0,-999.0,47,-99.99,,,-99.99,,2013-04-20 14:02:00,
2013-04-20 07:11:00,49.0,30.0,-100.00,North,-999,-999.0,-999.0,47,-99.99,,,-99.99,,2013-04-20 14:11:00,
2013-04-20 07:21:00,49.0,30.0,-100.00,North,-999,-999.0,-999.0,47,-99.99,,,-99.99,,2013-04-20 14:21:00,
2013-04-20 07:31:00,49.0,30.0,-100.00,North,-999,-999.0,-999.0,48,-99.99,,,-99.99,,2013-04-20 14:31:00,
2013-04-20 07:42:00,49.0,30.0,-100.00,North,-999,-999.0,-999.0,48,-99.99,,,-99.99,,2013-04-20 14:42:00,
2013-04-20 07:52:00,49.0,30.0,-100.00,North,-999,-999.0,-999.0,48,-99.99,,,-99.99,,2013-04-20 14:52:00,
2013-04-20 08:01:00,51.0,31.0,-100.00,North,-999,-999.0,-999.0,46,-99.99,,,-99.99,,2013-04-20 15:01:00,
2013-04-20 08:11:00,51.0,31.0,-100.00,North,-999,-999.0,-999.0,46,-99.99,,,-99.99,,2013-04-20 15:11:00,
2013-04-20 08:21:00,51.0,31.0,-100.00,North,-999,-999.0,-999.0,46,-99.99,,,-99.99,,2013-04-20 15:21:00,
2013-04-20 08:33:00,63.0,33.0,-100.00,North,-999,-999.0,-999.0,32,-99.99,,,-99.99,,2013-04-20 15:33:00,
2013-04-20 08:43:00,63.0,33.0,-100.00,North,-999,-999.0,-999.0,32,-99.99,,,-99.99,,2013-04-20 15:43:00,
2013-04-20 08:53:00,63.0,33.0,-100.00,North,-999,-999.0,-999.0,32,-99.99,,,-99.99,,2013-04-20 15:53:00,
2013-04-20 09:03:00,73.0,28.0,-100.00,North,-999,-999.0,-999.0,19,-99.99,,,-99.99,,2013-04-20 16:03:00,
2013-04-20 09:32:00,75.0,29.0,-100.00,North,-999,-999.0,-999.0,18,-99.99,,,-99.99,,2013-04-20 16:32:00,
2013-04-20 10:02:00,74.0,34.0,-100.00,North,-999,-999.0,-999.0,23,-99.99,,,-99.99,,2013-04-20 17:02:00,
2013-04-20 10:12:00,74.0,34.0,-100.00,North,-999,-999.0,-999.0,23,-99.99,,,-99.99,,2013-04-20 17:12:00,
2013-04-20 10:22:00,74.0,34.0,-100.00,North,-999,-999.0,-999.0,23,-99.99,,,-99.99,,2013-04-20 17:22:00,
2013-04-20 10:32:00,74.0,35.0,-100.00,North,-999,-999.0,-999.0,24,-99.99,,,-99.99,,2013-04-20 17:32:00,
2013-04-20 10:42:00,74.0,35.0,-100.00,North,-999,-999.0,-999.0,24,-99.99,,,-99.99,,2013-04-20 17:42:00,
2013-04-20 10:52:00,74.0,35.0,-100.00,North,-999,-999.0,-999.0,24,-99.99,,,-99.99,,2013-04-20 17:52:00,
2013-04-20 11:01:00,76.0,34.0,-100.00,North,-999,-999.0,-999.0,22,-99.99,,,-99.99,,2013-04-20 18:01:00,
2013-04-20 11:12:00,76.0,34.0,-100.00,North,-999,-999.0,-999.0,22,-99.99,,,-99.99,,2013-04-20 18:12:00,
2013-04-20 11:22:00,76.0,34.0,-100.00,North,-999,-999.0,-999.0,22,-99.99,,,-99.99,,2013-04-20 18:22:00,
2013-04-20 11:32:00,77.0,35.0,-100.00,North,-999,-999.0,-999.0,22,-99.99,,,-99.99,,2013-04-20 18:32:00,
2013-04-20 11:42:00,77.0,35.0,-100.00,North,-999,-999.0,-999.0,22,-99.99,,,-99.99,,2013-04-20 18:42:00,
2013-04-20 11:52:00,77.0,35.0,-100.00,North,-999,-999.0,-999.0,22,-99.99,,,-99.99,,2013-04-20 18:52:00,
2013-04-20 12:01:00,78.0,32.0,-100.00,North,-999,-999.0,-999.0,19,-99.99,,,-99.99,,2013-04-20 19:01:00,
2013-04-20 12:11:00,78.0,32.0,-100.00,North,-999,-999.0,-999.0,19,-99.99,,,-99.99,,2013-04-20 19:11:00,
2013-04-20 12:21:00,78.0,32.0,-100.00,North,-999,-999.0,-999.0,19,-99.99,,,-99.99,,2013-04-20 19:21:00,
2013-04-20 12:31:00,79.0,33.0,-100.00,North,-999,-999.0,-999.0,19,-99.99,,,-99.99,,2013-04-20 19:31:00,
2013-04-20 12:42:00,79.0,33.0,-100.00,North,-999,-999.0,-999.0,19,-99.99,,,-99.99,,2013-04-20 19:42:00,
2013-04-20 12:52:00,79.0,33.0,-100.00,North,-999,-999.0,-999.0,19,-99.99,,,-99.99,,2013-04-20 19:52:00,
2013-04-20 13:01:00,78.0,32.0,-100.00,North,-999,-999.0,-999.0,19,-99.99,,,-99.99,,2013-04-20 20:01:00,
2013-04-20 13:12:00,78.0,32.0,-100.00,North,-999,-999.0,-999.0,19,-99.99,,,-99.99,,2013-04-20 20:12:00,
2013-04-20 13:21:00,78.0,32.0,-100.00,North,-999,-999.0,-999.0,19,-99.99,,,-99.99,,2013-04-20 20:21:00,
2013-04-20 13:32:00,81.0,33.0,-100.00,North,-999,-999.0,-999.0,18,-99.99,,,0.00,,2013-04-20 20:32:00,
2013-04-20 13:42:00,81.0,33.0,-100.00,North,-999,-999.0,-999.0,18,-99.99,,,0.00,,2013-04-20 20:42:00,
2013-04-20 13:52:00,81.0,33.0,-100.00,North,-999,-999.0,-999.0,18,-99.99,,,0.00,,2013-04-20 20:52:00,
2013-04-20 14:01:00,81.0,33.0,-100.00,North,-999,-999.0,-999.0,18,-99.99,,,-99.99,,2013-04-20 21:01:00,
2013-04-20 14:12:00,81.0,33.0,-100.00,North,-999,-999.0,-999.0,18,-99.99,,,-99.99,,2013-04-20 21:12:00,
2013-04-20 14:21:00,81.0,33.0,-100.00,North,-999,-999.0,-999.0,18,-99.99,,,-99.99,,2013-04-20 21:21:00,
2013-04-20 14:32:00,82.0,34.0,-100.00,North,-999,-999.0,-999.0,18,-99.99,,,-99.99,,2013-04-20 21:32:00,
2013-04-20 14:43:00,82.0,34.0,-100.00,North,-999,-999.0,-999.0,18,-99.99,,,-99.99,,2013-04-20 21:43:00,
2013-04-20 14:53:00,82.0,34.0,-100.00,North,-999,-999.0,-999.0,18,-99.99,,,-99.99,,2013-04-20 21:53:00,
2013-04-20 15:02:00,81.0,36.0,-100.00,North,-999,-999.0,-999.0,20,-99.99,,,-99.99,,2013-04-20 22:02:00,
2013-04-20 15:12:00,81.0,36.0,-100.00,North,-999,-999.0,-999.0,20,-99.99,,,-99.99,,2013-04-20 22:12:00,
2013-04-20 15:22:00,81.0,36.0,-100.00,North,-999,-999.0,-999.0,20,-99.99,,,-99.99,,2013-04-20 22:22:00,
2013-04-20 15:32:00,81.0,36.0,-100.00,North,-999,-999.0,-999.0,20,-99.99,,,-99.99,,2013-04-20 22:32:00,
2013-04-20 16:02:00,81.0,39.0,-100.00,North,-999,-999.0,-999.0,22,-99.99,,,-99.99,,2013-04-20 23:02:00,
2013-04-20 16:11:00,81.0,39.0,-100.00,North,-999,-999.0,-999.0,22,-99.99,,,-99.99,,2013-04-20 23:11:00,
2013-04-20 16:22:00,81.0,39.0,-100.00,North,-999,-999.0,-999.0,22,-99.99,,,-99.99,,2013-04-20 23:22:00,
2013-04-20 16:32:00,79.0,39.0,-100.00,North,-999,-999.0,-999.0,24,-99.99,,,-99.99,,2013-04-20 23:32:00,
2013-04-20 16:42:00,79.0,39.0,-100.00,North,-999,-999.0,-999.0,24,-99.99,,,-99.99,,2013-04-20 23:42:00,
2013-04-20 16:52:00,79.0,39.0,-100.00,North,-999,-999.0,-999.0,24,-99.99,,,-99.99,,2013-04-20 23:52:00,
2013-04-20 17:01:00,79.0,38.0,-100.00,North,-999,-999.0,-999.0,23,-99.99,,,-99.99,,2013-04-21 00:01:00,
2013-04-20 17:11:00,79.0,38.0,-100.00,North,-999,-999.0,-999.0,23,-99.99,,,-99.99,,2013-04-21 00:11:00,
2013-04-20 17:21:00,79.0,38.0,-100.00,North,-999,-999.0,-999.0,23,-99.99,,,-99.99,,2013-04-21 00:21:00,
2013-04-20 17:31:00,77.0,36.0,-100.00,North,-999,-999.0,-999.0,23,-99.99,,,-99.99,,2013-04-21 00:31:00,
2013-04-20 17:42:00,77.0,36.0,-100.00,North,-999,-999.0,-999.0,23,-99.99,,,-99.99,,2013-04-21 00:42:00,
2013-04-20 17:52:00,77.0,36.0,-100.00,North,-999,-999.0,-999.0,23,-99.99,,,-99.99,,2013-04-21 00:52:00,
2013-04-20 18:01:00,77.0,35.0,-100.00,North,-999,-999.0,-999.0,22,-99.99,,,-99.99,,2013-04-21 01:01:00,
2013-04-20 18:11:00,77.0,35.0,-100.00,North,-999,-999.0,-999.0,22,-99.99,,,-99.99,,2013-04-21 01:11:00,
2013-04-20 18:21:00,77.0,35.0,-100.00,North,-999,-999.0,-999.0,22,-99.99,,,-99.99,,2013-04-21 01:21:00,
2013-04-20 18:31:00,78.0,32.0,-100.00,North,-999,-999.0,-999.0,19,-99.99,,,-99.99,,2013-04-21 01:31:00,
2013-04-20 18:42:00,78.0,32.0,-100.00,North,-999,-999.0,-999.0,19,-99.99,,,-99.99,,2013-04-21 01:42:00,
2013-04-20 18:52:00,78.0,32.0,-100.00,North,-999,-999.0,-999.0,19,-99.99,,,-99.99,,2013-04-21 01:52:00,
2013-04-20 19:01:00,75.0,32.0,-100.00,North,-999,-999.0,-999.0,21,-99.99,,,-99.99,,2013-04-21 02:01:00,
2013-04-20 19:11:00,75.0,32.0,-100.00,North,-999,-999.0,-999.0,21,-99.99,,,-99.99,,2013-04-21 02:11:00,
2013-04-20 19:21:00,75.0,32.0,-100.00,North,-999,-999.0,-999.0,21,-99.99,,,-99.99,,2013-04-21 02:21:00,
2013-04-20 19:31:00,73.0,33.0,-100.00,North,-999,-999.0,-999.0,23,-99.99,,,-99.99,,2013-04-21 02:31:00,
2013-04-20 19:42:00,73.0,33.0,-100.00,North,-999,-999.0,-999.0,23,-99.99,,,-99.99,,2013-04-21 02:42:00,
2013-04-20 19:52:00,73.0,33.0,-100.00,North,-999,-999.0,-999.0,23,-99.99,,,-99.99,,2013-04-21 02:52:00,
2013-04-20 20:01:00,67.0,33.0,-100.00,North,-999,-999.0,-999.0,28,-99.99,,,-99.99,,2013-04-21 03:01:00,
2013-04-20 20:11:00,67.0,33.0,-100.00,North,-999,-999.0,-999.0,28,-99.99,,,-99.99,,2013-04-21 03:11:00,
2013-04-20 20:21:00,67.0,33.0,-100.00,North,-999,-999.0,-999.0,28,-99.99,,,-99.99,,2013-04-21 03:21:00,
2013-04-20 20:32:00,62.0,33.0,-100.00,North,-999,-999.0,-999.0,34,-99.99,,,-99.99,,2013-04-21 03:32:00,
2013-04-20 20:42:00,62.0,33.0,-100.00,North,-999,-999.0,-999.0,34,-99.99,,,-99.99,,2013-04-21 03:42:00,
2013-04-20 20:52:00,62.0,33.0,-100.00,North,-999,-999.0,-999.0,34,-99.99,,,-99.99,,2013-04-21 03:52:00,
2013-04-20 21:02:00,58.0,33.0,-100.00,North,-999,-999.0,-999.0,38,-99.99,,,-99.99,,2013-04-21 04:02:00,
2013-04-20 21:12:00,58.0,33.0,-100.00,North,-999,-999.0,-999.0,38,-99.99,,,-99.99,,2013-04-21 04:12:00,
2013-04-20 21:22:00,58.0,33.0,-100.00,North,-999,-999.0,-999.0,38,-99.99,,,-99.99,,2013-04-21 04:22:00,
2013-04-20 21:32:00,54.0,30.0,-100.00,North,-999,-999.0,-999.0,40,-99.99,,,-99.99,,2013-04-21 04:32:00,
2013-04-20 21:42:00,54.0,30.0,-100.00,North,-999,-999.0,-999.0,40,-99.99,,,-99.99,,2013-04-21 04:42:00,
2013-04-20 21:53:00,54.0,30.0,-100.00,North,-999,-999.0,-999.0,40,-99.99,,,-99.99,,2013-04-21 04:53:00,
2013-04-20 22:02:00,51.0,30.0,-100.00,North,-999,-999.0,-999.0,45,-99.99,,,-99.99,,2013-04-21 05:02:00,
2013-04-20 22:12:00,51.0,30.0,-100.00,North,-999,-999.0,-999.0,45,-99.99,,,-99.99,,2013-04-21 05:12:00,
2013-04-20 22:22:00,51.0,30.0,-100.00,North,-999,-999.0,-999.0,45,-99.99,,,-99.99,,2013-04-21 05:22:00,
2013-04-20 22:32:00,50.0,32.0,-100.00,North,-999,-999.0,-999.0,49,-99.99,,,-99.99,,2013-04-21 05:32:00,
2013-04-20 22:42:00,50.0,32.0,-100.00,North,-999,-999.0,-999.0,49,-99.99,,,-99.99,,2013-04-21 05:42:00,
2013-04-20 22:52:00,50.0,32.0,-100.00,North,-999,-999.0,-999.0,49,-99.99,,,-99.99,,2013-04-21 05:52:00,
2013-04-20 23:01:00,47.0,31.0,-100.00,North,-999,-999.0,-999.0,53,-99.99,,,-99.99,,2013-04-21 06:01:00,
2013-04-20 23:12:00,47.0,31.0,-100.00,North,-999,-999.0,-999.0,53,-99.99,,,-99.99,,2013-04-21 06:12:00,
2013-04-20 23:21:00,47.0,31.0,-100.00,North,-999,-999.0,-999.0,53,-99.99,,,-99.99,,2013-04-21 06:21:00,
2013-04-20 23:32:00,46.0,30.0,-100.00,North,-999,-999.0,-999.0,53,-99.99,,,-99.99,,2013-04-21 06:32:00,
2013-04-20 23:42:00,46.0,30.0,-100.00,North,-999,-999.0,-999.0,53,-99.99,,,-99.99,,2013-04-21 06:42:00,
2013-04-20 23:52:00,46.0,30.0,-100.00,North,-999,-999.0,-999.0,53,-99.99,,,-99.99,,2013-04-21 06:52:00,